Rechercher aéroport 
image banner adimage banner adimage banner ad
image banner ad

2CL7 - Glendale Plaza Emergency

Situé à Glendale, United States

ICAO - 2CL7, IATA -

Données fournies par Airmate  

Information générale

Coordonnées: N34°9'20" W118°15'31"
Élévation : 904 feet MSL.
Variation magnétique : 14° East
Voir autres Aéroports à California

Données opérationnelles

Special qualification required
Heure actuelle UTC:
Heure actuelle locale:
Météo à : KBUR - Bob Hope ( 10 km )
METAR: KBUR 251553Z 13006KT 10SM CLR 21/16 A3000 RMK AO2 SLP146 T02060156 $
TAF: KBUR 251158Z 2512/2612 13006KT P6SM BKN150 FM251900 18010KT P6SM BKN120 FM260400 14006KT P6SM BKN120 FM260900 VRB03KT P6SM VCSH OVC100
Voir NOTAMs / SUP AIP / TFR affectant cet aéroport [VIEW]
Fréquences de communication: [VIEW]

Pistes:

Coordonnées de l'aéroport

Adresse: Glendale United States

Vue satellite de 2CL7